Location: Helsinki
(60.1699°N, 24.9384°E)
Time: 00:00:11
(UTC+02:00)

A-11 Canister half - Pass Details

Date: 05 November 2020
Orbit: 1516 x 1684 km, 47.2° (Epoch: 26 November)

Event Time Altitude Azimuth Distance (km) Brightness Sun altitude
Rises 00:07:44 0° 275° (W) 4,920 11.7 -45.6°
Enters shadow 00:09:28 - 270° (W) 4,448 11.4 -45.5°
Reaches altitude 10° 00:11:34 10° 263° (W) 3,913 - -45.5°
Maximum altitude 00:19:13 26° 213° (SSW) 2,801 - -45.5°
Drops below altitude 10° 00:26:41 10° 162° (SSE) 3,807 - -45.4°
Sets 00:30:23 0° 150° (SSE) 4,762 - -45.3°
